STARLINK-11594, 64320

Orbit data source: Space-Track

STARLINK-11594, 64320 is a payload satellite owned by SpaceX/Seattle (US) in LEO that was launched on Tue, 10 Jun 2025 UTC via an FALCON 9 launch vehicle from the Air Force Eastern Test Range (AFETR). Payload-class satellites include a variety of spacecraft equipped with specific instruments for various scientific and technological missions. These include communications satellites like Starlink; space stations such as the ISS; scientific satellites like the Hubble; Earth observation satellites from companies like Planet Labs, Umbra, and HawkEye 360; GPS; miniature CubeSats for education and research; and military/defense satellites.

Loading next visibility...
Identifier
64320, 2025-124D
Orbit
LEO
Last TLE update
10 hours ago
Origin
Manufacturer
SpaceX/Seattle
Mission
Operational spacecraft
Bus & Motor
STARLINK V2M, Unknown motor
Mass
730 kg wet, ~700 kg dry
Launch date (UTC)
2025-06-10 (3 weeks ago)
Launch vehicle
FALCON 9
Launch site
Air Force Eastern Test Range (AFETR)
Object type
Payload
Rocket body
Debris
Shape & HBR
Unknown
Radar Cross Section
Large (>1 m²)

Expand to show TLE details & history

TLE from 10 hours ago
0 STARLINK-11594
1 64320U 25124D   25182.13855643  .00122640  00000-0  69651-3 0  9997
2 64320  43.0005 106.2352 0001652 272.6050  87.4631 15.77887916  4264
Epoch: 2025-07-01T03:19Z
TLE epoch observation values (Epoch: 2025-07-01T03:19:31.275Z)
Latitude
-0.00003°
Longitude
136.91655°
Altitude
336.147 km
Speed
7.709 km/s
True Right ascension
07h 04m 56s
True Declination
0° 00' 00"
Sunlit
Object was in daylight at epoch
Visualization orbit readout
Latitude
-38.09531°
Longitude
11.05643°
Altitude
346.421 km
Speed
7.702 km/s
Apparent Right ascension
18h 21m 31s
Apparent Declination
-68° 37' 18"
Sunlit
Object is in full shadow
Visualization observer readout
Local Sidereal Time
01:07:11
Azimuth
208.145° SW
Elevation
-40.756°
Doppler factor
1
Orbital elements
Apogee altitude
339.523 km
Perigee altitude
337.304 km
Semi-major axis
6,716.55 km
Eccentricity
0.00017
Inclination
43.0005°
RAAN
106.2352°
Arg. of periapsis
272.605°
True anomaly
Unknown
Mean anomaly
87.4631°
Eccentric anomaly
Unknown
Mean motion
3.94297 °/min
Orbital period
91.3 mins
BSTAR
0.00069651
Loading maneuver chart data...
Loading SW <> Apogee altitude chart data...
Loading historical data...
Loading historical data...
Loading historical data...
Loading historical data...
Loading historical data...
Loading historical data...
Loading historical data...

STARLINK-11594 Visibility forecast

Observer location: undefined°, undefined°

Span
Click to sort rows by Start time (UTC) header in descending order
Start Az.
Max El. time (UTC)
Max El. Az.
Max El.
End time (UTC)
End Az.
4 mins2025-07-02 02:32:14.382Z292.333° WNW2025-07-02 02:34:14.382Z76.654° E42.046°2025-07-02 02:36:14.382Z102.484° ESE
|